Лесной Городок

Россия / Московская область     55°39′09″N   37°12′52″E
В апреле 2022 года жителям России запретили посещать сайт meteo.paraplan.net по решению Генеральной прокуратуры. Аудитория сайта уменьшилась в 10 раз. Владельцы сайта не видят смысла в поддержке погодного сервера в таких условиях. Сайт будет закрыт в октябре.
темп.,
°C
ветер,
м/с
пор.,
м/с
влажн.,
%
обл.,
%
осадки,
мм/ч
давл.,
гПа
погр.,
м
4 октября, вт
вт400:00+10ююв8177299 0.3 10011553
03:00+10ююв81674100 0.4 10021559
06:00+10ююв81574100 0.1 10031585
09:00+10ююв81572100 0.1 10041308
12:00+10ю61576100 0.3 10061747
15:00+8ююв51076100 1.2 10081060
18:00+8ююв51080100 0.0 1008770
21:00+7ю4887100 1.0 10081161
5 октября, ср
ср500:00+6ю4890100 0.6 10091186
03:00+7ю4783100 1.4 10091143
06:00+6ююз3690100 0.4 10101040
09:00+6ююз3590100 1.1 1011978
12:00+6зюз358099 0.2 1012748
15:00+7зюз4575100 0.3 1014824
18:00+6з4781100 0.1 1015690
21:00+6з3784100 0.1 1016733
6 октября, чт
чт600:00+5з379184 0.0 1017349
03:00+4з259374 0.0 1017192
06:00+4з24935 0.0 1018150
09:00+6з238115 0.0 1018211
12:00+9зюз347562 0.0 1018556
15:00+11юз3577100 0.0 1017695
18:00+9ююз389491 0.0 1017313
21:00+10юз4129620 0.0 1016398
7 октября, пт
пт700:00+9юз41295100 0.0 1015415
03:00+9з4139661 0.0 1015450
06:00+10зсз5128913 0.0 1017648
09:00+10зсз5128296 0.0 1019762
12:00+11з51068100 0.0 10221175
15:00+11з5107156 0.0 10221264
18:00+10з410750 0.0 1023713
21:00+8зюз411830 0.0 1024431
8 октября, сб
сб800:00+7зюз39890 0.0 1025257
03:00+7зюз38925 0.0 1025209
06:00+6юз39925 0.0 1025240
09:00+8юз4108510 0.0 1024342
12:00+13юз476675 0.0 1023725
15:00+14юз575860 0.0 1020978
18:00+12ююз4107248 0.0 1020719
21:00+10ююз51377100 0.0 1019678